Overview Statistics Trail Chart Weather Telemetry Raw packets
 

This is the latest recevied weather packets stored in our database for station/object W0WFX-2. If no packets are shown the sender has not sent any weather packets the latest 10 day(s).

<< 84 85 86 87 88 89 90 >>
Time Temp. Humidity Pressure Rain* Wind** Luminosity Snow
1788021542 31.67° C 47% 1017 hPa 0 mm - 636 W/m² -
1788021240 31.11° C 48% 1017 hPa 0 mm - 606 W/m² -
1788020936 30.56° C 50% 1017.2 hPa 0 mm - 591 W/m² -
1788020635 30.56° C 52% 1017.3 hPa 0 mm - 600 W/m² -
1788020331 30.56° C 51% 1017.1 hPa 0 mm - 601 W/m² -
1788020028 30° C 54% 1017.1 hPa 0 mm - 562 W/m² -
1788019722 29.44° C 54% 1017.3 hPa 0 mm - 516 W/m² -
1788019422 29.44° C 53% 1017.4 hPa 0 mm - 506 W/m² -
1788019119 28.89° C 55% 1017.5 hPa 0 mm - 513 W/m² -
1788018819 27.78° C 56% 1017.4 hPa 0 mm - 501 W/m² -
1788018514 27.78° C 57% 1017.5 hPa 0 mm - 447 W/m² -
1788018214 27.22° C 58% 1017.4 hPa 0 mm - 387 W/m² -
1788017910 27.22° C 59% 1017.5 hPa 0 mm - 297 W/m² -
1788017606 27.22° C 58% 1017.8 hPa 0 mm - 330 W/m² -
1788017302 26.67° C 60% 1017.5 hPa 0 mm - 341 W/m² -
1788016999 26.67° C 59% 1017.6 hPa 0 mm - 308 W/m² -
1788016698 26.67° C 60% 1017.6 hPa 0 mm - 278 W/m² -
1788016396 26.67° C 59% 1017.8 hPa 0 mm - 357 W/m² -
1788016096 26.11° C 59% 1017.6 hPa 0 mm - 400 W/m² -
1788015794 26.11° C 60% 1017.5 hPa 0 mm - 335 W/m² -
1788015490 25.56° C 60% 1017.7 hPa 0 mm - 374 W/m² -
1788015185 25.56° C 61% 1017.5 hPa 0 mm - 363 W/m² -
1788014883 25° C 64% 1017.5 hPa 0 mm - 319 W/m² -
1788014578 24.44° C 66% 1017.8 hPa 0 mm - 284 W/m² -
1788014273 23.89° C 65% 1017.7 hPa 0 mm - 153 W/m² -

* Rain latest hour (hover to see other rain measurements)
** Current wind speed in m/s (hover to see current wind gust speed)